Temperature
21 18 18 19 19 20 20 20 19 19 20 19 19 18 18 18 18 18 18 19 19 19 19 19 19 19 18 18 18 18 17 17 17 17 16 16 16 16 16 16 16 16 16 16
18 18 20 20 21 21 20 19 19 19 20 20 18 18 18 18 18 18 18 18 19 19 19 19 19 19 18 18 18 18 18 17 17 17 16 16 16 16 16 16 16 16 16 15
19 20 21 21 20 20 20 19 19 19 19 19 19 18 18 18 18 19 19 19 19 19 19 19 19 19 19 18 18 18 18 17 17 17 17 16 16 16 16 16 16 15 15 15
20 21 21 21 20 20 19 20 20 19 18 17 18 17 17 17 18 18 19 19 19 19 19 19 19 19 19 18 18 18 18 17 17 17 17 16 16 16 16 16 16 15 15 15
20 20 20 20 20 20 19 20 20 19 18 17 18 17 17 17 18 18 18 19 19 19 19 19 19 19 19 18 18 18 18 17 17 17 17 17 16 16 16 16 16 15 15 15
20 21 21 20 21 20 20 19 18 17 17 17 18 17 17 17 18 18 19 19 19 19 19 19 19 19 19 18 18 18 18 17 17 17 17 17 16 16 16 16 16 16 16 15
20 20 21 21 20 20 19 17 16 17 16 17 18 18 18 18 19 19 19 19 20 20 19 19 19 19 19 18 18 18 18 17 17 17 17 17 17 16 16 16 16 16 16 16
18 18 20 20 20 19 18 17 17 17 17 17 18 17 18 20 20 20 20 20 20 20 20 20 19 19 19 18 18 18 18 17 17 17 17 17 17 16 16 16 16 16 16 16
18 18 20 20 21 19 18 17 17 17 17 17 17 18 19 20 19 19 19 19 19 20 20 20 19 19 19 19 18 18 18 18 17 17 17 17 17 16 16 16 16 16 16 16
19 18 19 20 20 20 19 18 16 16 16 17 18 18 18 18 18 18 19 19 19 20 20 19 19 19 19 19 19 18 18 18 18 17 17 17 17 17 16 16 16 16 16 16
19 18 19 19 19 19 19 18 17 16 16 16 17 18 19 19 19 18 19 19 20 20 20 20 19 19 19 19 19 18 18 18 18 17 17 17 17 17 17 16 16 16 16 16
18 16 17 18 19 20 19 19 17 16 16 16 16 17 20 19 19 19 19 20 20 20 20 20 20 19 19 19 19 19 18 18 18 17 17 17 17 17 17 17 16 16 16 16
18 17 17 17 18 19 19 19 18 16 16 15 16 18 19 19 19 20 20 20 20 20 20 20 19 19 19 19 19 19 18 18 18 18 17 17 17 17 17 17 16 16 16 16
18 16 17 17 17 18 19 20 19 17 16 16 17 18 19 19 19 19 20 20 20 20 20 20 20 19 19 19 19 19 19 18 18 18 17 17 17 17 17 17 16 16 16 16
17 17 18 18 19 19 20 20 20 19 18 17 18 18 19 19 19 19 20 20 20 20 20 20 20 19 19 19 19 19 19 18 18 18 17 17 17 17 17 17 16 16 16 16
17 17 18 18 19 19 20 20 20 20 20 19 19 19 20 20 20 20 20 20 19 19 20 20 20 20 19 19 19 19 19 18 18 18 18 17 17 17 17 17 16 16 16 16
16 17 17 17 18 19 19 20 20 20 20 20 19 19 19 19 19 20 20 20 20 20 20 20 20 20 20 20 19 19 19 19 18 18 18 17 17 17 17 17 16 16 16 16
16 16 15 16 18 18 19 19 20 20 20 20 20 19 19 20 20 21 21 21 20 20 20 20 20 20 20 20 20 19 19 18 18 18 18 17 17 17 17 17 16 16 16 16
16 16 15 15 16 17 19 20 20 20 20 20 20 19 20 20 20 20 20 21 21 21 20 20 20 20 20 20 20 19 19 19 18 18 18 18 17 17 17 17 16 16 16 16
16 16 15 15 17 17 18 20 21 20 19 20 20 19 20 20 17 18 20 21 21 20 20 20 20 20 20 20 19 19 19 19 18 18 18 18 17 17 17 17 16 16 16 16
16 15 15 15 16 17 18 20 20 19 19 20 21 20 20 19 19 20 20 20 20 20 20 20 20 20 19 19 19 19 19 18 18 18 18 17 17 17 17 16 16 16 16 15
15 15 15 15 16 17 19 19 19 19 20 21 21 21 21 21 21 20 20 20 20 20 20 19 19 19 19 19 19 19 18 18 18 18 17 17 17 17 16 16 16 16 15 15
15 15 15 15 16 18 20 20 21 21 21 21 21 21 21 20 20 20 20 20 20 19 19 19 19 19 18 18 18 18 18 18 18 17 17 17 17 16 16 16 16 15 15 15
15 16 15 15 16 18 20 21 21 21 21 21 21 21 21 20 20 20 19 19 19 19 19 18 18 18 18 18 18 18 18 18 17 17 17 17 16 16 16 16 15 15 15 14
15 15 15 15 16 18 19 20 20 20 20 20 21 21 21 20 20 20 19 19 19 18 18 18 18 18 18 18 18 18 17 17 17 17 17 16 16 16 15 15 15 15 14 14
15 15 15 15 17 16 18 19 20 20 20 20 20 20 20 20 20 19 19 19 18 18 18 18 18 18 18 17 17 17 17 17 17 16 16 16 16 15 15 15 14 14 14 13
Wind_Speed
1 3 2 5 6 4 3 3 2 3 2 2 3 4 7 8 8 8 8 7 7 8 6 7 8 8 8 7 7 7 7 5 5 4 4 4 3 2 3 5 8 9 8 8
3 1 6 4 2 2 3 3 1 1 1 2 3 3 5 8 10 11 11 9 10 8 6 7 8 7 8 7 7 7 7 6 5 4 3 3 3 2 2 3 6 8 8 7
5 4 3 2 2 3 1 4 4 3 0 1 2 1 3 4 6 8 10 9 10 11 10 10 9 7 7 7 7 7 7 6 6 6 5 5 4 4 3 3 3 4 7 8
1 2 1 2 1 3 1 2 4 4 3 1 2 2 5 6 6 10 10 10 11 10 10 10 10 9 8 7 7 7 7 7 6 7 7 6 4 3 1 1 1 3 6 7
1 1 2 1 1 3 3 2 2 2 2 1 1 2 5 4 7 11 11 12 12 12 13 13 11 10 9 8 7 7 7 6 6 6 8 7 5 3 2 2 2 3 4 6
2 2 2 2 2 3 3 4 4 4 3 1 4 4 5 6 10 9 10 11 11 12 12 11 10 9 8 7 7 7 7 6 6 6 7 8 7 5 4 3 2 1 2 3
2 1 1 2 3 2 4 5 3 3 2 4 3 3 6 8 8 10 11 11 11 12 13 11 11 10 9 8 9 8 8 6 6 7 6 7 7 7 6 4 3 2 1 1
2 3 3 2 4 3 3 6 5 3 3 3 1 3 6 4 6 7 9 10 9 11 12 13 13 12 11 10 10 9 9 7 7 7 6 6 7 5 4 5 4 4 3 2
5 4 3 4 3 6 3 2 5 4 0 1 3 3 4 2 3 5 7 9 10 10 11 12 11 11 11 11 11 11 10 8 7 7 7 6 6 5 5 5 4 3 3 2
5 3 3 2 3 1 5 5 4 4 2 1 3 3 4 4 4 5 7 9 9 10 10 11 11 11 11 11 9 10 10 9 7 7 7 6 6 6 5 5 5 4 3 3
4 4 1 1 4 5 3 3 4 4 4 3 2 5 6 9 8 8 9 10 10 11 11 11 11 10 10 9 9 9 9 8 7 7 6 6 6 6 6 5 5 5 4 4
4 5 2 5 4 4 5 5 6 4 2 3 2 6 5 8 7 8 9 9 9 10 11 11 11 10 9 10 9 10 9 9 8 8 7 7 6 6 6 6 5 5 5 4
4 5 2 3 4 2 2 4 5 5 4 3 3 5 3 4 4 6 7 7 7 8 9 10 9 10 10 10 10 9 9 9 8 8 8 7 7 7 7 6 6 5 5 4
5 4 5 7 6 5 4 4 5 6 4 4 5 5 4 3 5 5 6 7 8 8 10 10 10 9 9 10 10 10 9 8 8 8 8 8 8 8 7 7 6 6 6 5
4 3 4 5 5 4 5 6 7 6 8 7 6 6 7 7 7 7 7 7 8 8 10 11 11 10 9 9 9 9 9 9 9 9 8 8 8 7 7 7 6 5 5 6
3 2 1 3 4 3 5 7 7 7 6 6 5 6 6 4 4 5 6 8 9 9 10 10 10 10 11 11 10 9 9 9 9 10 9 8 7 7 7 7 6 6 5 5
2 3 2 2 4 2 4 7 7 6 6 7 7 7 4 4 6 7 7 8 9 9 9 10 10 11 11 11 11 11 11 10 10 9 8 8 8 8 7 8 7 6 6 5
6 4 3 1 1 4 7 5 5 6 5 6 6 6 7 7 6 6 7 8 8 8 9 9 9 9 9 9 10 10 9 9 10 9 8 8 8 8 7 7 7 6 5 5
6 6 3 2 2 4 6 3 4 5 3 4 6 5 5 6 5 1 3 6 8 8 8 8 8 8 8 9 9 9 9 9 9 9 9 9 9 9 8 8 7 6 5 5
4 6 5 3 3 5 7 5 3 4 2 4 5 7 7 6 4 4 5 5 5 5 5 5 5 5 7 7 9 10 9 9 9 10 9 8 9 9 9 9 7 5 5 5
3 3 4 4 4 7 7 4 2 5 7 5 4 6 7 6 7 6 5 5 5 5 5 6 6 6 5 6 9 9 8 9 8 7 7 7 8 9 8 7 5 5 5 5
6 5 5 5 5 7 5 2 5 7 4 4 4 5 5 5 4 5 6 6 6 6 5 6 7 5 4 6 8 8 7 7 6 6 7 7 7 7 7 7 5 5 6 5
6 7 5 7 7 6 5 5 4 4 4 4 5 5 7 6 5 5 5 6 6 6 6 5 7 6 4 5 7 8 5 5 7 7 6 6 6 5 6 7 6 5 5 4
3 2 3 3 5 4 3 1 1 2 4 5 6 7 7 7 6 6 6 6 5 5 6 5 7 6 4 4 5 6 5 6 7 7 6 5 6 5 5 5 5 5 5 5
4 2 3 3 3 2 3 1 1 2 3 5 5 5 7 8 7 7 6 6 5 5 5 6 7 6 4 4 4 4 5 7 7 6 5 5 4 5 4 4 3 4 4 6
4 5 5 5 6 4 5 4 3 5 4 5 5 5 5 7 8 7 6 5 6 6 6 6 6 6 5 5 4 4 5 7 8 6 5 4 4 4 4 4 3 3 3 4
Wind_Direction
83 82 177 208 196 189 173 163 169 208 206 141 164 179 186 183 174 178 181 184 187 193 188 160 153 148 142 137 137 134 131 130 118 105 99 91 77 56 47 53 62 66 69 76
53 246 226 211 205 138 134 131 124 212 174 150 185 221 200 190 192 190 187 190 189 191 176 161 154 150 150 148 147 144 142 138 132 128 129 129 121 89 62 44 51 58 68 77
169 229 207 163 131 120 119 164 176 184 62 77 122 316 227 211 199 200 197 196 192 185 177 170 161 156 152 155 160 156 150 140 132 123 107 91 68 52 41 36 31 37 67 76
197 252 128 112 162 150 212 202 163 147 126 233 172 219 255 214 209 213 208 200 198 188 176 172 166 159 163 167 158 149 149 141 135 129 125 124 121 126 163 150 68 43 62 70
249 171 142 165 191 144 187 138 116 126 128 52 220 165 270 207 215 218 209 200 197 187 179 176 172 168 166 161 153 152 148 142 139 136 135 129 128 142 136 100 80 52 40 57
236 220 155 164 145 142 130 63 46 52 71 315 229 178 258 217 212 206 199 197 194 186 180 175 170 160 159 156 151 151 148 146 144 142 139 139 142 140 130 122 110 74 39 33
312 302 183 118 88 47 96 87 49 14 9 258 247 187 244 232 209 195 187 193 192 180 173 170 167 165 166 164 161 159 155 157 154 150 148 152 154 151 154 158 154 140 99 61
180 263 230 181 165 172 167 141 152 180 220 278 289 233 257 251 198 182 176 178 179 177 175 175 175 174 174 173 167 164 165 165 162 160 162 160 157 153 159 166 162 163 167 173
176 233 251 205 169 141 138 165 170 140 177 279 275 290 314 46 106 146 160 164 174 181 182 180 177 176 176 176 175 172 171 169 169 169 163 161 161 159 163 163 158 163 171 161
155 186 252 214 95 105 158 152 104 116 146 269 283 259 231 209 187 175 170 175 181 180 182 179 177 179 180 178 174 173 173 174 172 169 169 167 167 166 165 155 156 164 165 147
142 152 267 119 181 191 162 148 130 138 160 163 248 270 224 200 191 185 187 183 184 184 182 178 178 180 180 175 172 175 178 172 169 171 169 162 166 164 157 155 164 163 156 151
152 133 195 242 251 198 178 182 152 151 196 172 180 269 252 195 190 182 187 187 185 185 180 175 174 175 175 178 179 180 179 176 177 175 168 169 167 161 159 166 171 163 157 152
134 120 105 344 326 313 218 200 164 142 135 161 179 262 293 176 177 184 182 184 187 181 174 171 171 177 180 182 182 182 181 183 180 172 167 167 169 170 173 175 172 163 156 147
119 124 165 191 219 211 225 222 175 147 164 198 216 239 273 222 192 185 179 182 182 178 174 172 177 181 182 182 183 183 185 182 177 171 171 175 180 178 178 172 166 163 157 152
101 151 203 230 246 225 222 222 203 189 190 193 222 219 231 215 200 188 180 177 171 173 176 179 182 184 183 183 184 185 185 182 176 172 178 185 182 174 167 162 165 161 157 160
100 146 167 292 279 260 248 234 211 206 198 200 214 245 232 193 167 168 171 166 166 176 182 185 186 185 187 188 187 184 184 183 174 176 184 181 175 169 167 167 165 159 160 159
131 125 106 269 295 340 257 226 206 204 196 182 207 226 187 158 172 180 184 173 175 183 185 186 189 192 193 191 187 186 186 179 175 180 180 176 176 174 173 168 161 166 170 162
151 136 135 221 34 232 252 246 194 192 221 206 198 196 180 181 183 183 176 175 180 186 188 189 191 193 192 188 185 182 175 173 177 179 179 177 174 174 171 166 171 175 168 165
159 146 140 149 203 273 287 265 178 171 239 219 186 180 173 150 108 30 209 181 183 185 185 187 189 186 180 181 180 170 170 172 176 181 185 182 175 173 172 176 181 178 168 171
125 124 139 151 174 230 246 253 223 136 244 260 184 176 169 138 141 229 222 181 166 165 167 165 160 152 160 174 165 160 169 174 185 189 187 180 176 175 180 186 184 174 171 178
142 127 161 174 207 257 250 257 117 152 219 238 182 170 170 174 191 193 177 162 156 151 148 145 139 145 163 163 153 157 165 183 191 179 169 170 175 179 182 180 173 163 165 163
173 170 185 170 194 244 249 158 176 210 206 183 157 150 148 148 145 145 146 144 139 133 131 134 136 139 139 143 146 151 170 183 165 155 160 169 172 174 170 162 163 162 160 162
189 188 184 189 213 238 227 213 216 173 169 169 148 144 136 134 142 144 139 138 137 133 132 131 130 126 117 134 145 153 174 158 147 147 159 165 164 164 158 160 161 157 159 167
249 171 154 221 256 260 258 217 98 165 170 162 148 144 137 138 143 137 134 133 132 128 130 126 121 121 125 140 149 159 158 146 141 146 155 156 153 152 149 152 158 163 172 174
218 158 159 228 268 345 337 301 144 95 111 124 124 135 142 137 137 137 137 138 136 127 124 123 125 126 132 132 135 139 142 141 137 136 136 135 139 145 144 140 151 166 180 179
210 175 171 212 220 196 236 238 151 122 121 127 123 115 121 134 140 136 135 134 131 130 126 119 117 117 118 113 110 112 128 136 136 132 131 134 136 135 135 131 97 63 106 139
Height
1526 1531 1534 1531 1529 1530 1531 1535 1539 1538 1533 1535 1538 1539 1538 1539 1540 1542 1543 1545 1546 1548 1551 1552 1554 1556 1557 1559 1560 1561 1562 1562 1563 1563 1563 1563 1563 1563 1563 1563 1563 1563 1563 1563
1531 1533 1527 1525 1525 1527 1531 1537 1540 1536 1532 1535 1538 1539 1537 1537 1538 1539 1541 1543 1544 1547 1549 1551 1553 1555 1557 1558 1560 1561 1562 1563 1563 1564 1564 1564 1564 1564 1564 1564 1564 1564 1563 1563
1532 1528 1523 1525 1527 1530 1533 1536 1538 1538 1535 1535 1539 1543 1539 1536 1537 1538 1539 1540 1542 1544 1547 1550 1552 1554 1556 1558 1559 1561 1562 1563 1563 1564 1564 1565 1565 1565 1565 1565 1565 1565 1565 1564
1527 1523 1523 1526 1528 1529 1536 1530 1531 1534 1541 1547 1543 1555 1542 1536 1536 1535 1536 1538 1540 1542 1545 1548 1550 1553 1555 1557 1559 1560 1562 1563 1564 1564 1565 1565 1565 1565 1565 1565 1565 1566 1566 1566
1528 1524 1525 1528 1527 1526 1531 1528 1531 1534 1540 1547 1545 1551 1545 1536 1536 1533 1532 1534 1536 1539 1542 1545 1548 1551 1554 1556 1558 1560 1561 1562 1563 1564 1565 1565 1565 1566 1566 1566 1566 1566 1567 1567
1525 1523 1523 1524 1524 1524 1527 1531 1534 1539 1545 1556 1546 1550 1548 1537 1530 1527 1528 1531 1533 1537 1540 1544 1547 1550 1553 1555 1557 1559 1561 1562 1563 1564 1565 1565 1566 1566 1566 1567 1567 1567 1567 1568
1529 1525 1523 1523 1527 1527 1530 1543 1556 1557 1561 1557 1542 1544 1541 1525 1522 1522 1525 1528 1531 1534 1538 1542 1545 1548 1551 1554 1556 1558 1560 1561 1563 1564 1565 1565 1566 1566 1567 1567 1568 1568 1568 1569
1538 1538 1525 1523 1526 1530 1532 1540 1556 1564 1563 1555 1542 1544 1531 1518 1518 1519 1522 1525 1529 1532 1535 1538 1542 1545 1549 1552 1554 1556 1558 1560 1562 1563 1564 1565 1566 1567 1567 1568 1568 1569 1569 1570
1536 1536 1523 1521 1521 1525 1533 1538 1538 1549 1551 1555 1548 1537 1525 1518 1519 1520 1522 1525 1528 1531 1534 1537 1540 1543 1546 1549 1552 1554 1557 1559 1561 1562 1564 1565 1566 1567 1568 1568 1569 1569 1570 1570
1525 1533 1525 1521 1521 1523 1526 1531 1542 1550 1558 1561 1550 1543 1537 1526 1522 1521 1522 1524 1526 1529 1532 1535 1538 1542 1545 1547 1550 1553 1556 1558 1560 1561 1563 1564 1566 1567 1568 1568 1569 1570 1570 1571
1520 1531 1530 1525 1526 1528 1529 1532 1537 1546 1549 1558 1558 1546 1521 1520 1519 1519 1520 1522 1524 1527 1530 1533 1536 1540 1543 1546 1549 1551 1554 1556 1558 1560 1562 1563 1565 1566 1567 1568 1569 1570 1570 1571
1518 1529 1535 1528 1521 1519 1522 1526 1533 1546 1548 1548 1552 1544 1514 1515 1516 1517 1518 1520 1522 1525 1527 1531 1534 1538 1541 1544 1547 1550 1552 1554 1556 1559 1561 1562 1564 1565 1567 1568 1569 1570 1570 1571
1517 1528 1540 1538 1533 1524 1523 1522 1525 1533 1542 1548 1551 1540 1514 1514 1515 1516 1517 1519 1521 1523 1526 1529 1533 1536 1539 1542 1545 1547 1550 1552 1555 1557 1559 1561 1562 1564 1565 1567 1568 1569 1570 1571
1513 1525 1534 1540 1534 1525 1524 1520 1521 1530 1541 1542 1538 1531 1518 1516 1515 1516 1516 1518 1520 1522 1525 1527 1530 1533 1537 1540 1542 1545 1548 1550 1553 1555 1557 1559 1561 1563 1564 1566 1567 1568 1569 1570
1513 1523 1522 1521 1517 1517 1517 1517 1518 1522 1526 1532 1527 1524 1517 1514 1513 1514 1515 1517 1519 1521 1523 1525 1528 1531 1534 1537 1540 1543 1545 1548 1550 1553 1554 1556 1559 1561 1563 1564 1566 1567 1568 1569
1514 1520 1520 1520 1515 1515 1516 1513 1514 1515 1516 1519 1519 1518 1510 1510 1511 1513 1514 1515 1517 1519 1521 1523 1526 1529 1531 1534 1537 1540 1542 1545 1548 1550 1552 1554 1557 1559 1561 1563 1564 1566 1567 1568
1515 1520 1525 1528 1519 1517 1521 1511 1510 1511 1509 1513 1518 1513 1508 1510 1510 1511 1512 1513 1515 1516 1518 1521 1523 1526 1528 1531 1534 1537 1540 1542 1545 1547 1549 1552 1554 1556 1558 1560 1562 1564 1565 1566
1514 1519 1527 1528 1525 1532 1517 1503 1503 1505 1505 1504 1505 1505 1506 1507 1508 1509 1510 1512 1513 1515 1517 1519 1521 1523 1526 1529 1532 1535 1537 1540 1542 1545 1547 1549 1552 1554 1556 1558 1560 1561 1563 1564
1506 1515 1525 1530 1531 1524 1510 1502 1502 1506 1507 1502 1503 1504 1504 1505 1508 1510 1510 1511 1512 1513 1515 1516 1519 1521 1524 1526 1529 1532 1535 1537 1540 1542 1544 1546 1549 1551 1553 1555 1557 1559 1560 1561
1506 1510 1521 1527 1529 1529 1512 1499 1498 1503 1510 1501 1500 1501 1502 1504 1511 1511 1509 1510 1511 1512 1514 1515 1517 1519 1522 1524 1527 1530 1532 1535 1537 1539 1542 1544 1546 1548 1550 1552 1554 1556 1558 1559
1512 1515 1520 1524 1526 1518 1501 1497 1499 1513 1510 1499 1498 1498 1500 1501 1504 1506 1507 1508 1509 1511 1512 1514 1516 1518 1520 1523 1525 1527 1530 1532 1534 1537 1540 1542 1544 1546 1548 1550 1552 1553 1555 1556
1510 1515 1518 1521 1524 1519 1496 1496 1500 1499 1495 1496 1497 1497 1498 1500 1502 1504 1505 1506 1508 1510 1511 1513 1515 1517 1519 1521 1523 1525 1527 1530 1533 1535 1537 1539 1541 1544 1546 1548 1549 1551 1552 1553
1503 1504 1506 1508 1507 1496 1493 1493 1492 1493 1494 1494 1495 1497 1498 1500 1501 1503 1504 1506 1508 1509 1511 1513 1515 1516 1518 1520 1522 1524 1526 1529 1531 1533 1535 1537 1539 1541 1543 1545 1546 1548 1549 1550
1497 1496 1499 1501 1496 1493 1492 1491 1491 1492 1493 1493 1495 1496 1498 1499 1501 1502 1504 1505 1507 1509 1511 1513 1514 1516 1518 1520 1521 1523 1525 1527 1529 1530 1533 1534 1536 1538 1540 1542 1543 1545 1546 1547
1494 1494 1497 1498 1494 1491 1491 1491 1492 1492 1493 1494 1495 1496 1498 1499 1501 1502 1504 1505 1507 1509 1511 1513 1514 1515 1517 1519 1521 1522 1524 1526 1527 1529 1530 1532 1534 1536 1537 1539 1541 1542 1543 1544
1490 1492 1494 1495 1491 1491 1491 1490 1492 1492 1493 1494 1495 1496 1498 1499 1501 1502 1504 1506 1507 1509 1511 1512 1514 1515 1517 1518 1519 1521 1523 1524 1525 1527 1528 1530 1532 1534 1535 1537 1538 1540 1541 1542